Temp
-9 -8 -8 -8 -8 -8 -8 -8 -8 -8 -8 -8 -7 -8 -7 -7 -8 -8 -8 -8 -9 -10 -11 -11 -11 -11 -11 -11 -11 -10 -10 -10 -10 -9 -10 -10 -10 -10 -10 -10 -10 -9 -9 -9 -10 -10 -10 -10 -10
-9 -9 -9 -9 -8 -9 -8 -8 -8 -8 -8 -8 -7 -8 -7 -7 -8 -7 -8 -8 -9 -10 -10 -10 -11 -11 -11 -11 -11 -10 -10 -10 -10 -9 -10 -10 -10 -10 -10 -10 -9 -9 -9 -10 -10 -10 -10 -10 -10
-9 -9 -9 -8 -9 -9 -8 -9 -8 -8 -8 -8 -8 -8 -7 -7 -7 -7 -7 -8 -8 -9 -9 -10 -10 -11 -11 -11 -10 -11 -11 -10 -10 -10 -10 -10 -10 -10 -10 -9 -9 -10 -10 -10 -10 -10 -10 -10 -10
-9 -9 -9 -9 -8 -9 -8 -9 -8 -8 -7 -8 -8 -8 -7 -7 -7 -7 -7 -8 -8 -9 -9 -9 -10 -11 -11 -10 -11 -11 -10 -10 -10 -11 -10 -10 -10 -10 -10 -9 -10 -10 -10 -10 -10 -10 -10 -10 -10
-9 -9 -9 -9 -8 -9 -9 -9 -8 -8 -8 -8 -8 -8 -7 -7 -7 -7 -7 -7 -8 -8 -9 -9 -10 -10 -10 -10 -10 -10 -10 -10 -10 -10 -10 -10 -10 -9 -9 -9 -9 -10 -10 -10 -10 -10 -10 -10 -10
-9 -9 -9 -9 -9 -9 -9 -9 -9 -8 -8 -8 -7 -8 -8 -7 -7 -7 -7 -7 -8 -8 -9 -10 -10 -10 -9 -10 -10 -10 -10 -9 -10 -10 -10 -10 -9 -9 -9 -9 -10 -10 -10 -10 -10 -10 -10 -10 -10
-9 -9 -9 -9 -9 -9 -9 -9 -8 -8 -8 -8 -8 -8 -8 -7 -8 -7 -7 -8 -7 -8 -9 -9 -10 -10 -9 -9 -10 -10 -10 -10 -10 -10 -10 -9 -9 -9 -10 -10 -10 -10 -10 -10 -10 -10 -10 -10 -10
-10 -10 -9 -9 -10 -9 -9 -9 -9 -8 -8 -8 -8 -8 -8 -7 -7 -7 -7 -8 -8 -8 -8 -9 -9 -9 -9 -9 -9 -9 -10 -10 -9 -9 -9 -9 -9 -9 -10 -9 -10 -10 -10 -10 -10 -10 -10 -10 -10
-10 -10 -9 -10 -10 -10 -10 -9 -9 -9 -8 -8 -8 -8 -8 -8 -7 -8 -7 -8 -8 -8 -8 -9 -9 -9 -9 -9 -9 -9 -9 -9 -9 -9 -9 -9 -9 -9 -9 -9 -10 -10 -10 -10 -10 -10 -11 -11 -11
-10 -10 -10 -10 -10 -10 -10 -9 -9 -9 -8 -9 -8 -8 -8 -8 -7 -7 -8 -8 -8 -9 -9 -8 -9 -9 -9 -9 -9 -9 -9 -9 -9 -9 -9 -9 -9 -9 -10 -10 -10 -10 -10 -10 -10 -11 -11 -11 -11
-10 -10 -10 -10 -10 -10 -10 -9 -9 -9 -9 -9 -9 -9 -9 -9 -8 -8 -8 -8 -8 -8 -9 -8 -8 -9 -9 -9 -9 -9 -10 -9 -9 -9 -9 -9 -9 -9 -10 -10 -10 -10 -10 -10 -11 -11 -11 -11 -11
-10 -10 -10 -10 -10 -10 -10 -10 -9 -9 -9 -9 -9 -9 -9 -9 -8 -8 -8 -8 -9 -9 -9 -8 -8 -8 -9 -9 -9 -9 -9 -9 -9 -9 -9 -9 -10 -10 -10 -11 -11 -11 -11 -11 -11 -11 -11 -11 -11
-10 -10 -10 -10 -10 -10 -10 -10 -10 -10 -9 -9 -9 -9 -9 -9 -9 -9 -8 -9 -9 -9 -9 -9 -8 -8 -9 -9 -9 -9 -9 -9 -9 -9 -9 -10 -10 -11 -11 -11 -11 -11 -11 -11 -11 -11 -11 -11 -11
-10 -10 -10 -10 -10 -10 -10 -10 -10 -10 -10 -9 -10 -10 -10 -9 -9 -9 -9 -9 -9 -9 -9 -9 -9 -9 -9 -9 -9 -9 -10 -10 -10 -10 -10 -10 -10 -10 -10 -10 -11 -11 -11 -11 -11 -11 -11 -11 -11
-10 -10 -10 -10 -10 -10 -9 -10 -10 -10 -10 -9 -9 -10 -10 -10 -9 -10 -9 -8 -9 -9 -9 -9 -9 -9 -10 -10 -10 -10 -9 -10 -10 -10 -10 -10 -10 -10 -10 -10 -10 -11 -11 -11 -11 -11 -11 -11 -11
-11 -11 -10 -10 -10 -10 -10 -9 -10 -10 -10 -9 -9 -10 -10 -10 -10 -10 -10 -9 -9 -10 -9 -9 -10 -10 -10 -10 -10 -10 -10 -10 -10 -10 -10 -10 -10 -10 -10 -11 -11 -11 -11 -11 -11 -11 -11 -11 -11
-11 -10 -10 -10 -10 -10 -9 -9 -9 -9 -10 -10 -9 -9 -10 -10 -10 -10 -10 -10 -10 -10 -10 -10 -10 -10 -10 -10 -10 -10 -10 -10 -10 -10 -10 -10 -10 -10 -11 -11 -11 -11 -11 -11 -11 -11 -11 -11 -11
-10 -11 -11 -10 -10 -10 -10 -10 -10 -10 -10 -10 -9 -9 -10 -10 -10 -10 -10 -10 -10 -10 -10 -10 -10 -10 -10 -10 -10 -10 -10 -11 -11 -10 -10 -10 -11 -11 -11 -11 -11 -11 -11 -11 -11 -11 -11 -11 -11
-11 -12 -12 -11 -10 -11 -11 -10 -10 -10 -10 -10 -9 -9 -9 -10 -10 -10 -10 -10 -10 -10 -10 -10 -10 -10 -10 -10 -11 -11 -11 -11 -10 -10 -10 -11 -11 -11 -11 -11 -11 -11 -11 -11 -11 -11 -12 -12 -12
-12 -12 -12 -11 -11 -11 -11 -10 -10 -10 -10 -10 -10 -9 -10 -9 -9 -10 -10 -10 -10 -11 -11 -10 -10 -10 -10 -11 -11 -11 -11 -11 -10 -10 -11 -11 -11 -11 -11 -11 -11 -11 -11 -11 -11 -11 -12 -12 -12
-12 -11 -12 -12 -11 -11 -11 -10 -10 -10 -10 -11 -10 -10 -10 -10 -10 -9 -10 -10 -11 -11 -11 -11 -11 -11 -10 -10 -10 -11 -11 -11 -11 -11 -11 -11 -11 -11 -11 -11 -11 -11 -11 -11 -11 -11 -11 -11 -12
-12 -12 -12 -12 -12 -11 -11 -10 -10 -10 -10 -10 -10 -10 -10 -10 -10 -10 -10 -10 -10 -11 -11 -11 -11 -11 -11 -11 -10 -11 -11 -11 -11 -11 -11 -11 -11 -11 -11 -11 -11 -11 -12 -12 -11 -11 -11 -11 -11
-12 -12 -12 -12 -11 -11 -11 -10 -10 -10 -10 -10 -11 -11 -11 -12 -11 -11 -10 -10 -10 -11 -11 -11 -11 -11 -11 -11 -11 -11 -11 -11 -11 -11 -11 -11 -11 -11 -11 -11 -11 -11 -12 -11 -12 -11 -12 -12 -12
-13 -13 -12 -12 -12 -11 -11 -10 -9 -10 -11 -11 -11 -11 -11 -11 -11 -11 -12 -12 -11 -11 -11 -11 -11 -11 -11 -11 -11 -11 -11 -11 -11 -11 -11 -11 -11 -11 -12 -12 -11 -11 -11 -11 -12 -12 -12 -12 -12
-13 -13 -12 -12 -11 -10 -11 -11 -9 -10 -11 -11 -11 -11 -11 -11 -11 -11 -11 -11 -12 -12 -12 -11 -11 -11 -11 -11 -11 -11 -11 -11 -11 -11 -11 -11 -11 -12 -12 -12 -12 -12 -12 -12 -12 -12 -12 -12 -12
-12 -13 -12 -12 -12 -11 -11 -10 -10 -11 -11 -11 -11 -11 -10 -10 -11 -11 -11 -11 -11 -11 -12 -12 -11 -12 -11 -11 -11 -11 -12 -11 -11 -11 -11 -12 -12 -12 -12 -12 -12 -12 -12 -12 -12 -12 -12 -12 -12
-13 -13 -13 -13 -12 -12 -11 -11 -11 -11 -11 -11 -11 -11 -11 -11 -11 -11 -10 -10 -11 -10 -12 -13 -12 -12 -12 -12 -12 -12 -12 -12 -12 -12 -12 -12 -12 -12 -12 -12 -12 -12 -12 -12 -12 -12 -12 -13 -13
-14 -13 -13 -13 -13 -12 -12 -11 -11 -11 -11 -11 -11 -11 -10 -10 -10 -10 -10 -10 -11 -11 -11 -12 -13 -13 -13 -12 -12 -12 -12 -12 -12 -12 -12 -12 -12 -12 -12 -12 -12 -12 -13 -13 -13 -13 -13 -13 -13
-14 -13 -13 -13 -13 -13 -12 -12 -11 -11 -11 -11 -11 -11 -11 -10 -10 -10 -11 -11 -11 -11 -11 -11 -12 -13 -13 -13 -13 -13 -12 -12 -12 -12 -12 -12 -12 -12 -12 -13 -13 -13 -13 -13 -13 -13 -13 -13 -14
-14 -14 -15 -15 -14 -14 -13 -12 -11 -11 -12 -12 -12 -12 -12 -12 -11 -11 -10 -10 -11 -11 -11 -11 -11 -13 -14 -14 -13 -13 -13 -13 -13 -13 -13 -13 -13 -13 -13 -13 -13 -13 -13 -13 -13 -13 -14 -14 -14
Height
5853 5857 5859 5861 5866 5865 5864 5865 5865 5866 5865 5864 5864 5864 5863 5863 5863 5865 5861 5858 5857 5857 5858 5858 5859 5860 5862 5862 5863 5865 5866 5867 5868 5870 5871 5872 5873 5875 5876 5877 5877 5876 5877 5877 5877 5877 5877 5877 5876
5850 5855 5858 5860 5863 5863 5861 5863 5864 5864 5864 5863 5863 5862 5863 5863 5862 5863 5861 5859 5858 5857 5858 5858 5859 5859 5860 5861 5863 5865 5866 5868 5869 5870 5872 5873 5875 5877 5878 5878 5878 5879 5879 5879 5879 5879 5879 5878 5877
5847 5852 5856 5858 5860 5859 5859 5861 5863 5863 5863 5862 5862 5861 5862 5862 5862 5862 5862 5860 5859 5858 5859 5859 5859 5860 5860 5862 5864 5865 5867 5869 5870 5872 5873 5875 5878 5878 5879 5880 5880 5880 5881 5880 5880 5880 5879 5878 5877
5845 5849 5853 5855 5857 5859 5859 5860 5862 5863 5862 5861 5861 5860 5861 5861 5862 5862 5862 5861 5860 5859 5860 5860 5860 5861 5862 5864 5865 5867 5868 5869 5871 5873 5875 5877 5879 5879 5881 5881 5881 5882 5882 5881 5881 5881 5880 5879 5879
5841 5845 5849 5852 5855 5857 5858 5859 5859 5861 5862 5861 5860 5860 5861 5860 5862 5862 5862 5861 5861 5860 5861 5861 5861 5863 5865 5866 5868 5869 5870 5872 5874 5875 5877 5879 5879 5880 5881 5882 5883 5883 5883 5882 5882 5882 5881 5880 5879
5837 5843 5848 5850 5852 5854 5856 5857 5858 5859 5860 5860 5859 5859 5860 5860 5861 5862 5863 5862 5861 5861 5862 5863 5862 5865 5867 5869 5870 5872 5873 5875 5876 5877 5878 5879 5880 5881 5882 5883 5883 5883 5883 5883 5882 5882 5881 5880 5879
5835 5839 5844 5847 5850 5851 5853 5854 5856 5857 5858 5858 5858 5859 5860 5860 5861 5861 5863 5862 5862 5862 5864 5866 5866 5865 5868 5871 5872 5874 5876 5878 5878 5878 5879 5879 5880 5881 5882 5883 5883 5883 5883 5882 5882 5882 5881 5880 5880
5833 5836 5840 5845 5846 5847 5851 5852 5854 5856 5858 5858 5858 5859 5859 5860 5861 5861 5862 5863 5863 5864 5864 5868 5868 5867 5869 5871 5874 5875 5876 5878 5878 5879 5880 5880 5881 5882 5883 5883 5883 5883 5883 5882 5882 5882 5881 5881 5880
5828 5832 5838 5841 5842 5845 5848 5849 5851 5854 5856 5856 5857 5859 5859 5860 5861 5862 5861 5862 5864 5865 5865 5868 5869 5869 5870 5871 5873 5875 5876 5878 5879 5879 5880 5881 5882 5882 5883 5883 5883 5883 5883 5883 5883 5882 5881 5881 5880
5822 5829 5834 5835 5838 5842 5844 5848 5849 5853 5853 5855 5858 5859 5859 5860 5861 5862 5862 5862 5863 5865 5865 5868 5869 5869 5870 5872 5873 5874 5876 5878 5879 5880 5881 5881 5882 5883 5883 5883 5883 5883 5883 5883 5882 5882 5881 5880 5879
5818 5826 5826 5832 5835 5838 5842 5844 5846 5848 5850 5853 5856 5858 5858 5859 5860 5861 5862 5863 5863 5865 5865 5866 5869 5869 5870 5871 5873 5874 5876 5878 5879 5880 5881 5882 5882 5882 5883 5883 5882 5883 5883 5882 5882 5881 5880 5879 5877
5815 5820 5824 5828 5831 5834 5838 5842 5842 5843 5847 5851 5854 5855 5857 5858 5860 5861 5861 5863 5861 5863 5865 5866 5867 5869 5869 5870 5872 5874 5876 5877 5878 5879 5880 5880 5882 5882 5882 5883 5882 5882 5881 5881 5881 5880 5879 5877 5875
5810 5815 5819 5823 5826 5830 5834 5837 5839 5840 5844 5848 5851 5852 5854 5856 5858 5859 5861 5863 5862 5863 5864 5865 5867 5868 5870 5871 5872 5874 5875 5876 5878 5879 5880 5880 5881 5882 5882 5882 5882 5881 5881 5880 5879 5878 5877 5876 5874
5806 5809 5814 5818 5821 5826 5830 5833 5837 5837 5840 5844 5847 5849 5851 5853 5856 5857 5858 5861 5861 5862 5863 5864 5865 5868 5869 5870 5872 5874 5875 5877 5877 5878 5879 5881 5882 5882 5881 5881 5881 5880 5879 5878 5877 5876 5874 5873 5871
5802 5805 5808 5812 5816 5820 5824 5829 5836 5834 5837 5839 5844 5845 5848 5851 5854 5854 5856 5859 5860 5859 5861 5863 5865 5866 5868 5870 5871 5873 5876 5878 5878 5879 5880 5881 5881 5881 5880 5880 5879 5878 5877 5875 5874 5873 5871 5869 5867
5796 5798 5801 5809 5813 5815 5820 5825 5827 5829 5832 5835 5838 5841 5844 5847 5850 5852 5854 5856 5858 5859 5860 5862 5864 5866 5867 5869 5870 5872 5874 5876 5878 5879 5880 5880 5880 5880 5879 5878 5877 5876 5874 5872 5871 5869 5867 5865 5863
5787 5790 5798 5804 5809 5811 5815 5818 5819 5825 5827 5830 5834 5836 5839 5842 5846 5848 5850 5853 5855 5856 5858 5860 5861 5863 5865 5868 5869 5871 5873 5873 5874 5876 5876 5877 5877 5876 5876 5874 5873 5872 5871 5869 5867 5866 5863 5860 5858
5783 5791 5798 5801 5805 5807 5809 5812 5813 5818 5822 5826 5829 5833 5834 5838 5842 5843 5845 5849 5852 5855 5856 5857 5859 5860 5863 5865 5867 5869 5871 5871 5872 5873 5874 5874 5873 5872 5872 5871 5870 5869 5867 5865 5863 5861 5858 5855 5852
5782 5786 5790 5794 5797 5799 5803 5807 5808 5813 5818 5821 5825 5829 5831 5834 5835 5838 5842 5845 5847 5851 5854 5855 5856 5858 5859 5861 5863 5864 5865 5867 5869 5869 5870 5870 5869 5868 5866 5867 5866 5864 5861 5860 5858 5855 5853 5850 5846
5775 5780 5786 5787 5791 5794 5798 5803 5804 5808 5815 5817 5819 5823 5826 5827 5831 5834 5836 5840 5843 5846 5849 5851 5852 5854 5856 5856 5857 5859 5860 5863 5864 5864 5864 5863 5864 5863 5863 5862 5860 5858 5856 5854 5851 5849 5847 5844 5841
5768 5773 5780 5783 5785 5788 5794 5797 5800 5805 5807 5812 5815 5817 5819 5822 5825 5828 5831 5835 5838 5842 5843 5846 5847 5848 5851 5852 5853 5855 5856 5858 5858 5858 5858 5859 5859 5858 5856 5855 5854 5852 5850 5848 5847 5845 5842 5840 5835
5761 5767 5772 5778 5780 5782 5786 5792 5795 5801 5805 5807 5811 5812 5813 5816 5817 5821 5825 5827 5833 5837 5837 5839 5841 5841 5844 5846 5847 5849 5850 5850 5851 5851 5850 5851 5852 5851 5850 5848 5846 5845 5843 5841 5839 5837 5834 5833 5829
5754 5761 5766 5771 5773 5774 5780 5781 5794 5796 5800 5805 5806 5807 5809 5810 5812 5814 5819 5821 5823 5825 5830 5831 5833 5836 5838 5840 5842 5842 5843 5844 5843 5844 5846 5845 5844 5843 5842 5842 5840 5838 5836 5834 5832 5829 5826 5823 5820
5745 5752 5758 5763 5765 5766 5774 5776 5786 5792 5798 5799 5800 5802 5803 5803 5804 5806 5810 5812 5817 5819 5821 5823 5827 5829 5830 5832 5834 5836 5836 5836 5836 5836 5837 5837 5837 5837 5835 5834 5832 5831 5829 5827 5824 5822 5819 5817 5814
5737 5746 5749 5752 5755 5760 5765 5768 5773 5788 5790 5793 5793 5796 5797 5798 5798 5800 5801 5804 5807 5809 5812 5815 5817 5820 5822 5822 5824 5826 5827 5827 5827 5828 5829 5828 5830 5830 5826 5825 5824 5823 5820 5818 5816 5813 5811 5808 5805
5731 5736 5742 5746 5750 5756 5758 5763 5768 5781 5784 5787 5787 5789 5791 5792 5793 5794 5796 5796 5797 5799 5801 5805 5808 5811 5813 5814 5816 5816 5817 5819 5820 5819 5819 5819 5819 5820 5819 5817 5816 5814 5812 5807 5806 5804 5802 5799 5796
5720 5726 5734 5738 5743 5747 5752 5760 5763 5767 5774 5777 5779 5781 5782 5784 5786 5788 5789 5789 5790 5790 5793 5797 5797 5799 5801 5805 5805 5807 5807 5808 5809 5809 5808 5810 5810 5810 5809 5808 5807 5805 5803 5800 5796 5794 5791 5788 5785
5713 5719 5726 5729 5734 5737 5745 5748 5754 5758 5763 5768 5770 5773 5775 5776 5778 5779 5781 5781 5781 5782 5784 5784 5786 5790 5792 5792 5794 5797 5798 5798 5798 5798 5799 5799 5799 5799 5797 5797 5795 5794 5792 5789 5786 5784 5780 5777 5773
5705 5710 5714 5719 5723 5727 5735 5742 5748 5752 5753 5757 5760 5761 5763 5766 5768 5768 5769 5771 5773 5774 5775 5775 5775 5778 5782 5783 5784 5784 5786 5786 5785 5786 5787 5787 5787 5786 5784 5784 5783 5782 5780 5777 5774 5772 5768 5765 5762
5692 5699 5704 5709 5716 5721 5724 5736 5739 5743 5743 5744 5749 5751 5753 5754 5756 5758 5760 5762 5762 5763 5764 5766 5766 5767 5769 5771 5772 5774 5774 5775 5775 5776 5776 5775 5774 5773 5772 5771 5770 5769 5768 5765 5762 5760 5757 5754 5750
Wind_Speed
32 30 28 23 19 19 18 16 13 15 14 14 13 13 11 11 7 7 9 9 6 3 8 8 8 6 7 8 15 13 10 9 7 7 7 8 8 6 5 5 7 7 8 10 10 11 10 9 10
32 31 26 24 21 20 20 16 15 15 13 13 12 13 11 10 7 7 9 9 4 5 8 9 9 7 6 7 15 13 8 6 7 9 8 8 6 6 5 6 8 8 9 10 10 10 10 12 13
30 31 28 24 22 23 19 16 15 16 13 12 13 12 11 9 6 5 6 6 2 7 8 9 9 8 10 12 18 11 7 5 9 9 10 8 5 5 6 8 9 10 10 11 11 12 13 13 14
30 31 26 25 24 22 20 18 17 17 14 12 12 12 10 7 6 5 3 2 2 8 6 8 8 11 16 16 13 9 8 6 10 10 9 7 7 8 9 10 11 10 11 11 11 12 13 13 14
32 30 27 23 24 22 20 21 20 19 15 12 11 11 8 6 6 6 4 3 4 7 7 8 12 15 17 17 12 9 8 8 11 10 8 8 9 10 11 11 10 10 10 10 11 11 12 13 14
33 32 27 24 26 21 20 21 20 19 16 12 10 9 8 5 6 8 7 8 7 9 10 11 17 17 14 11 10 5 5 5 9 10 8 9 10 11 11 9 9 9 9 10 10 12 12 12 11
33 31 27 27 26 21 21 21 21 18 16 11 9 9 7 6 7 10 10 11 8 12 12 13 15 17 13 9 6 3 3 7 6 6 8 11 11 11 9 8 8 8 9 10 10 9 9 9 9
28 29 29 25 23 24 22 20 19 17 15 11 10 11 7 5 8 11 13 12 10 11 12 12 14 14 13 9 7 6 8 5 5 8 9 11 11 9 7 7 7 8 8 8 7 6 6 7 8
28 31 28 27 24 24 21 18 17 17 15 12 14 12 8 6 9 12 14 15 12 10 12 10 11 12 11 11 9 7 7 8 9 9 10 11 9 7 7 6 6 6 6 5 4 4 5 6 8
37 32 29 28 25 23 22 17 15 17 15 16 14 12 10 8 8 11 14 18 15 13 12 11 12 12 11 10 9 10 10 10 10 11 12 10 8 6 5 5 4 3 2 2 3 4 5 7 8
36 31 33 29 27 25 23 18 17 16 19 17 14 14 13 10 9 11 15 16 15 13 12 14 13 14 13 12 11 12 12 12 13 14 11 10 8 7 5 3 1 1 0 1 3 5 7 8 9
35 35 32 27 30 27 26 21 18 21 19 16 17 16 15 12 11 11 14 18 19 16 14 15 16 15 14 12 13 13 13 14 15 14 13 11 9 7 5 3 3 3 3 5 7 9 11 12 12
35 38 33 32 30 32 30 27 21 20 19 17 19 19 17 15 14 12 13 17 18 18 16 16 15 15 14 15 15 14 16 17 15 14 13 12 10 7 3 3 5 5 7 9 10 12 14 16 16
31 31 32 35 31 34 32 32 27 24 21 20 22 22 20 18 15 16 16 18 18 19 19 17 17 17 18 17 16 17 18 17 16 15 13 10 6 4 5 6 8 9 10 11 13 15 16 18 19
29 30 30 37 37 36 38 34 29 29 27 24 24 24 23 21 19 21 18 19 20 20 20 18 18 19 19 18 18 19 18 17 15 13 9 7 8 8 9 10 11 12 13 15 16 18 20 21 22
35 37 35 29 24 29 37 35 35 36 34 29 28 28 26 24 24 21 21 20 21 18 19 20 19 19 19 20 20 20 19 17 15 13 11 12 12 12 13 15 15 16 17 19 20 21 22 24 26
42 40 33 34 24 21 26 36 44 40 38 33 33 30 29 28 27 25 24 24 22 20 19 20 20 20 20 21 21 20 20 19 18 18 17 16 16 17 18 20 20 20 22 24 24 25 26 27 28
46 38 30 28 28 27 29 25 36 42 40 36 34 33 31 30 29 31 29 27 26 23 22 21 20 20 21 22 21 21 21 21 20 19 18 19 20 22 24 25 25 25 26 28 27 28 30 30 32
44 40 38 35 31 31 29 20 28 38 39 37 33 34 33 31 35 33 31 30 29 26 26 25 24 25 24 25 24 25 26 25 24 23 23 24 25 27 28 28 28 29 30 30 30 30 31 32 34
46 45 36 39 37 33 30 20 18 24 29 37 37 37 35 36 36 34 34 34 33 30 29 29 28 29 28 29 30 30 31 29 28 28 28 29 30 30 30 31 32 34 34 34 33 33 33 34 37
48 49 42 39 34 35 32 27 24 16 19 23 31 35 36 40 38 38 37 36 37 34 33 34 34 34 32 32 35 35 34 32 33 34 35 33 34 34 34 33 35 36 37 37 36 37 37 37 39
49 48 44 40 38 40 39 33 29 23 19 23 21 14 20 35 42 42 41 39 38 37 39 38 39 39 36 37 36 37 38 38 38 39 38 37 37 37 38 37 36 37 38 38 38 38 40 40 42
49 47 46 40 38 44 41 44 31 31 25 21 20 23 19 19 29 38 42 43 42 43 43 44 43 43 41 41 40 40 41 40 41 42 41 41 40 40 41 41 40 39 39 40 40 40 41 43 43
50 47 45 47 49 45 40 45 39 27 22 22 17 20 24 25 23 31 41 45 46 47 47 48 47 46 45 45 45 44 43 44 44 45 44 44 44 42 43 44 43 42 42 43 43 43 44 45 47
50 45 47 49 52 54 50 48 46 31 26 25 29 29 29 26 27 21 31 39 45 51 52 51 50 49 48 48 48 48 49 48 47 48 47 47 46 44 45 46 45 45 45 44 45 46 47 48 49
55 53 50 49 49 49 52 53 50 37 35 32 33 31 32 35 31 32 30 30 37 45 50 52 52 52 52 52 51 52 51 51 51 51 51 49 48 47 47 48 48 46 47 48 48 49 50 51 53
55 52 49 49 48 47 50 47 48 42 36 38 36 33 33 30 31 33 38 39 36 40 44 53 53 54 54 53 56 56 53 52 52 53 54 51 50 50 49 50 49 49 50 52 52 52 53 54 55
54 52 51 50 50 50 49 49 46 46 41 39 41 42 41 44 45 41 39 37 37 37 39 42 55 56 55 57 59 59 56 55 56 57 56 54 53 51 51 52 52 52 53 54 56 56 55 57 58
55 56 56 55 54 53 50 47 41 40 42 41 41 43 44 45 48 50 43 37 35 33 34 33 39 55 58 60 60 60 59 57 58 60 59 57 57 56 56 55 55 54 55 56 58 58 59 60 59
60 58 55 53 52 52 53 48 45 43 45 46 46 45 45 45 48 50 51 50 46 43 41 39 37 44 57 57 58 60 60 60 59 59 59 59 60 60 60 59 58 56 56 58 61 61 60 60 59
Wind_Direction
222 227 230 234 237 242 261 257 260 275 288 301 314 313 320 313 324 326 336 338 328 144 161 187 193 205 203 177 175 154 152 152 156 160 164 161 153 133 87 63 60 66 64 64 63 55 48 51 53
218 226 230 233 236 244 249 246 256 273 283 296 306 306 314 310 310 309 331 336 337 120 153 155 172 194 194 176 170 168 164 140 143 153 158 152 140 105 85 82 80 73 73 69 62 62 64 61 58
215 222 231 234 241 244 246 245 255 271 279 287 297 302 309 307 294 293 326 336 19 121 140 149 155 168 150 144 158 171 166 148 161 164 147 138 118 104 96 87 86 85 77 75 75 69 64 59 58
218 222 223 231 235 244 244 241 252 268 268 276 290 295 301 297 273 266 304 326 114 124 138 147 148 144 134 144 147 160 155 146 156 155 139 132 130 103 91 91 87 83 83 76 68 65 64 64 61
220 220 217 223 236 242 244 250 255 261 261 269 277 289 287 286 261 235 242 167 130 116 116 136 134 134 142 147 155 167 159 129 139 150 146 138 106 99 98 94 97 87 76 73 72 74 71 62 51
219 219 221 223 233 234 242 253 253 254 255 257 268 280 276 275 250 219 213 166 143 124 124 133 136 136 152 154 159 162 163 168 153 141 138 122 113 110 105 104 94 91 86 82 77 67 57 48 41
213 214 217 221 230 232 238 246 254 250 248 249 255 264 262 263 238 209 205 173 148 134 134 134 145 145 158 161 156 159 197 189 152 138 143 131 124 116 116 102 98 99 94 80 68 57 49 40 29
211 214 218 220 226 232 235 241 250 244 242 246 253 254 255 248 227 208 201 176 154 145 139 155 147 160 167 173 176 151 151 168 157 161 153 134 129 129 114 107 111 101 85 74 61 50 40 30 18
213 215 214 218 224 231 233 242 243 240 243 244 245 247 247 241 237 212 202 183 169 166 152 172 171 166 179 181 173 155 160 177 167 161 149 139 137 133 131 133 118 98 83 71 58 41 22 13 7
216 213 216 218 221 229 227 237 235 238 240 244 248 253 253 253 235 214 211 193 180 183 174 187 190 184 184 186 186 168 173 177 170 164 156 151 151 156 160 144 116 95 73 44 15 1 1 355 352
215 215 224 220 222 227 224 229 227 232 239 239 244 252 255 253 247 220 207 204 193 192 192 193 205 195 196 192 189 178 183 182 177 170 167 170 171 173 172 161 136 196 305 334 327 326 331 332 334
219 224 223 225 222 226 222 225 223 227 235 240 242 246 252 252 247 247 216 210 197 204 205 211 197 210 200 202 199 193 194 190 184 181 181 180 187 189 188 196 232 263 300 315 317 320 317 316 321
223 224 228 224 222 225 223 222 223 231 234 236 241 243 248 253 248 236 236 225 208 211 213 205 210 207 216 203 201 203 202 193 195 193 189 190 194 204 223 268 278 295 304 306 305 305 305 310 311
222 220 228 222 223 224 228 225 227 236 234 232 237 242 245 247 249 246 228 227 218 214 220 218 207 213 209 211 212 209 205 206 203 197 197 202 214 236 255 269 278 283 290 294 295 297 300 301 303
221 217 222 224 228 237 227 227 230 236 237 231 234 237 241 246 245 242 237 236 233 218 217 219 221 213 216 216 213 209 213 219 208 204 211 227 241 253 269 277 282 287 290 291 293 297 299 300 302
219 218 223 220 228 225 229 226 226 233 238 236 232 234 239 242 243 247 247 239 238 237 232 226 227 232 228 221 214 214 215 214 221 228 237 248 263 275 283 288 290 290 289 290 292 295 297 298 299
223 225 224 225 231 230 242 241 235 233 234 242 240 233 236 238 243 243 245 248 243 233 238 235 231 231 228 225 225 224 218 219 223 231 240 253 266 276 283 287 290 289 288 288 293 296 296 296 296
225 229 230 235 235 240 247 246 238 228 232 238 246 240 233 237 240 242 241 246 246 244 240 238 239 236 232 228 231 232 233 234 238 246 257 264 270 275 279 285 289 288 287 288 293 295 297 297 297
231 229 230 235 231 241 249 246 232 232 234 237 243 246 242 237 241 241 246 247 250 248 249 245 243 239 235 232 232 232 236 240 246 253 258 265 267 271 277 286 290 286 284 289 291 291 292 294 294
228 229 229 235 239 242 244 231 238 238 242 242 245 245 246 243 246 244 244 246 248 247 248 248 248 250 242 236 235 238 242 246 251 254 257 260 267 273 281 286 285 285 287 289 290 290 291 293 296
227 229 234 238 235 242 239 227 230 233 237 249 254 258 256 252 252 250 247 247 247 248 247 248 247 249 248 245 243 244 247 250 253 257 261 265 270 275 277 280 283 286 289 290 291 292 293 295 297
227 233 237 234 243 240 235 227 231 235 243 242 248 264 265 255 251 253 251 246 249 250 249 247 248 250 250 250 249 249 250 252 255 257 260 263 268 272 275 276 278 282 285 287 288 290 293 295 297
227 233 232 232 240 241 233 241 224 240 244 253 252 246 250 255 262 257 253 247 243 243 247 248 248 251 254 255 253 252 253 254 256 260 263 265 267 269 272 275 276 279 282 284 286 289 290 292 293
229 233 233 237 237 235 239 245 235 239 241 243 247 255 255 253 248 252 255 254 251 249 247 249 249 250 251 255 256 257 255 256 257 259 260 263 266 270 271 273 276 279 281 283 285 287 289 291 293
228 230 234 234 237 240 244 249 255 248 245 246 259 271 269 266 252 255 255 258 258 250 247 247 248 249 251 252 254 256 257 257 258 260 261 263 266 268 269 273 276 279 282 283 285 286 288 289 291
230 229 233 237 240 245 250 250 256 258 262 264 262 264 265 263 260 261 265 264 262 261 251 248 250 251 253 254 256 256 257 259 260 262 263 264 266 267 268 273 275 279 282 283 284 285 286 289 290
229 228 232 236 240 245 252 255 260 261 256 257 258 256 260 265 260 267 274 279 278 270 262 249 252 251 251 254 256 257 257 259 260 261 263 265 267 269 270 273 277 279 280 281 282 284 286 287 290
227 232 233 233 236 242 247 251 254 259 255 255 258 259 259 263 268 272 278 275 270 270 271 271 254 252 254 254 255 257 259 260 262 262 264 266 268 271 271 273 274 276 278 280 282 283 284 286 289
231 234 235 237 238 241 244 247 251 253 258 255 253 253 255 257 262 269 271 272 268 269 276 279 272 253 252 260 259 259 260 260 261 264 266 267 269 270 270 272 274 276 277 279 280 282 284 286 288
230 231 237 242 243 245 248 241 248 250 252 254 253 251 254 255 258 261 265 269 272 271 276 278 275 265 250 255 262 263 263 263 264 266 268 268 269 270 272 273 274 276 277 277 279 281 284 287 289